Wind_Speed
104 102 100 96 92 88 84 81 78 76 73 68 63 59 56 54 51 49 49 49 48 45 43 40 37 35 36 36 36 36 36 38 41 44 47 51 54 56 58 61 65 68 72 76 80 84 88 93 97 102 107 112 117 122 127 132 137 143 148 153 156 159 161 163 164 164 165 166 167 168 168 169 169 169 169 169 169 169 169 168 168 167 166 166 165
104 101 99 95 91 87 83 79 77 74 72 68 63 59 56 53 51 49 48 48 48 47 44 42 39 36 35 35 37 37 36 36 38 41 44 47 51 54 56 59 61 64 67 71 75 79 84 88 93 98 102 107 112 117 122 127 132 136 141 147 152 156 159 162 164 165 166 167 167 168 169 169 170 170 170 170 170 170 170 170 169 168 166 165 165
102 100 97 94 90 85 81 78 75 73 71 68 63 59 56 53 51 49 47 47 48 47 45 43 41 38 35 34 35 37 37 36 36 38 41 44 47 50 53 56 59 61 64 67 71 75 79 84 89 94 98 103 107 112 117 122 126 130 135 140 145 150 155 159 162 164 166 167 168 168 169 170 170 171 171 171 171 171 171 171 171 170 168 166 165
101 98 95 91 88 84 80 76 73 71 69 67 63 59 56 53 51 48 47 46 47 47 46 44 42 40 37 34 34 35 36 37 36 36 38 41 44 47 50 53 56 59 61 63 66 70 74 79 84 88 93 98 102 107 111 116 121 125 129 133 138 143 149 154 158 162 164 167 168 169 169 170 170 171 172 172 172 172 172 172 172 171 170 169 167
100 97 93 89 85 81 78 75 72 69 68 65 62 58 56 53 51 48 46 45 45 46 46 45 43 41 39 36 34 33 35 36 36 36 36 38 41 44 46 50 53 56 58 61 63 66 69 73 78 83 87 92 97 101 106 110 115 119 123 128 132 136 142 147 151 156 160 164 166 168 169 169 170 171 172 172 172 172 173 173 172 172 171 171 170
98 94 90 86 83 79 76 73 70 68 66 64 61 58 55 53 51 49 46 45 44 45 45 45 43 42 40 37 35 33 33 34 35 36 36 36 39 41 44 46 50 53 55 58 61 63 65 69 73 77 82 86 91 96 101 105 109 113 117 122 127 131 135 140 144 149 154 158 162 165 167 168 169 170 171 172 173 173 173 173 173 173 172 172 172
95 91 87 83 80 77 74 72 69 66 64 62 59 57 55 53 51 49 47 45 44 44 45 45 43 42 41 39 36 34 33 33 34 35 35 35 36 39 42 44 47 50 53 55 58 61 63 65 68 72 77 81 86 90 95 99 103 107 111 116 121 126 130 135 139 143 147 152 156 160 164 166 168 169 170 172 172 173 173 173 173 173 173 173 173
92 88 85 81 78 75 73 70 68 65 63 61 58 56 55 53 51 49 47 45 43 43 44 44 43 42 42 40 37 35 34 33 33 33 34 35 35 36 39 42 44 47 50 52 55 58 60 62 65 68 72 76 80 84 88 93 98 102 106 111 115 120 125 130 134 138 142 146 150 154 159 162 165 167 168 170 171 171 172 173 173 173 174 173 173
89 86 82 79 76 73 71 68 67 65 62 60 57 55 54 53 51 49 47 45 44 43 43 43 43 42 42 41 39 36 34 34 33 33 33 34 34 34 36 39 42 44 47 50 52 55 57 60 62 64 68 71 75 79 83 87 92 97 101 105 109 113 118 123 128 133 137 140 144 148 153 157 160 163 165 167 168 169 171 172 173 174 174 174 173
87 83 80 78 75 72 69 67 65 63 61 59 57 55 54 53 51 50 48 46 44 43 43 42 42 41 41 41 39 37 35 33 33 33 32 32 33 33 34 36 39 42 44 47 49 52 54 57 59 61 64 67 70 74 78 82 86 90 95 99 103 106 110 115 120 125 130 134 138 142 146 149 153 157 160 163 165 167 169 171 172 173 173 174 173
85 82 79 76 74 70 67 65 63 61 60 58 56 54 53 53 51 50 48 47 45 43 42 42 42 41 41 40 39 38 36 34 33 33 32 32 32 33 33 34 36 39 42 44 46 49 51 53 56 58 61 63 66 69 73 77 81 84 88 92 97 101 105 108 112 117 121 126 131 135 138 142 145 149 153 157 160 163 166 168 169 170 172 172 173
84 81 77 75 73 69 66 64 62 60 58 57 56 54 53 52 51 50 49 47 45 44 43 42 41 40 40 40 39 38 37 35 33 32 32 32 31 32 32 33 34 36 39 42 44 46 48 50 53 55 57 60 63 65 69 73 76 79 82 86 90 95 99 103 107 110 113 118 123 128 132 135 138 142 146 149 153 156 159 162 164 166 167 169 170
83 80 77 75 72 68 65 63 61 59 58 56 55 54 52 52 51 49 49 48 46 44 43 42 41 40 39 40 39 38 37 36 34 32 31 32 32 32 32 32 32 34 36 39 41 43 45 47 50 52 54 56 59 62 65 68 72 75 78 80 84 88 93 97 101 105 107 110 114 119 124 129 132 136 140 143 147 149 151 154 156 158 161 163 165
82 79 76 74 71 68 65 62 60 59 57 56 55 53 52 51 50 49 48 48 46 45 44 42 41 40 38 39 39 38 37 36 35 33 31 30 31 32 32 31 31 32 34 36 39 41 43 45 47 49 51 53 56 58 61 64 67 71 74 76 79 82 86 90 95 98 102 105 108 112 116 120 125 129 134 137 141 143 144 146 149 151 154 156 158
81 78 76 73 71 68 65 62 60 58 57 56 55 54 52 51 50 49 48 48 47 45 44 43 41 40 38 37 38 38 37 36 35 35 32 29 30 31 32 31 31 31 32 34 36 39 41 42 44 46 48 50 52 55 58 61 63 66 70 72 75 77 80 84 87 91 95 98 102 106 109 112 116 121 126 130 134 136 138 141 143 145 147 148 150
80 78 75 73 70 68 65 62 60 58 57 56 55 54 53 51 50 49 48 48 47 46 45 44 42 40 38 37 37 37 37 36 35 35 33 30 28 30 32 32 31 31 31 32 34 36 38 40 42 43 45 47 49 52 54 58 61 63 66 68 71 73 76 79 81 84 88 92 96 100 103 106 109 113 117 121 126 129 132 135 137 139 140 142 143
79 77 74 72 69 67 64 62 59 57 56 56 55 54 53 51 50 48 48 48 47 46 45 45 43 41 38 36 36 36 37 36 35 34 34 32 28 28 30 32 32 32 31 31 31 34 36 38 40 41 43 44 46 48 51 54 57 60 62 64 67 70 72 74 75 78 82 86 90 94 97 101 104 107 110 114 117 121 125 128 130 133 135 136 137
78 76 73 71 69 67 64 62 60 57 56 55 55 54 53 51 50 48 47 47 48 47 46 45 44 42 39 37 35 34 35 36 35 34 34 33 30 27 28 31 32 32 32 31 30 31 34 36 38 40 41 43 44 46 48 51 54 56 59 61 63 66 67 69 71 74 77 80 84 88 92 95 99 102 105 108 111 113 116 119 123 127 130 131 131
76 74 72 70 68 66 64 62 60 57 55 55 55 54 53 51 49 48 47 47 47 47 46 45 45 43 41 38 36 34 33 34 35 34 33 33 31 28 27 29 30 32 32 32 31 30 31 33 35 37 39 41 42 44 46 48 50 52 55 58 60 61 63 65 68 71 74 76 79 82 86 89 93 96 100 104 106 108 109 112 116 120 122 124 126
75 73 70 68 66 65 63 62 60 58 56 54 54 54 53 51 49 48 47 47 47 46 46 45 45 44 43 40 37 34 32 32 33 34 33 32 31 29 27 27 29 31 32 32 31 30 30 31 33 35 37 39 40 42 44 45 47 49 52 54 55 57 60 63 66 68 70 73 76 78 81 84 88 91 95 98 101 103 106 108 111 112 113 115 119
73 71 69 67 65 64 63 61 59 58 56 54 54 53 52 50 49 47 47 47 47 46 46 45 45 44 44 42 39 36 33 31 31 32 33 32 31 29 28 27 28 29 31 32 32 31 30 30 31 33 35 37 38 40 42 43 45 46 48 50 52 54 57 60 63 65 68 71 73 76 78 81 83 86 89 92 95 98 101 104 106 106 107 109 111
72 69 67 65 63 63 62 60 59 57 55 54 53 52 52 50 49 47 47 47 47 46 46 45 45 44 43 42 40 38 35 32 30 30 32 32 31 29 28 27 27 28 29 31 31 31 30 30 30 31 33 35 37 38 40 42 43 44 45 47 49 52 55 57 59 62 65 67 70 72 75 77 80 82 85 87 90 92 95 99 101 101 102 103 105
70 67 65 63 62 61 61 59 58 57 55 54 52 51 51 50 49 47 47 47 47 46 46 45 45 44 43 42 40 38 36 34 31 29 30 31 30 29 27 27 27 27 28 29 30 30 30 30 30 30 31 33 35 36 38 40 41 42 44 45 47 49 52 54 56 59 61 64 66 69 71 73 76 78 81 83 85 87 89 92 94 96 97 99 100
68 66 64 62 61 60 59 58 57 56 55 53 51 50 50 49 49 47 47 47 47 46 46 45 45 44 44 43 42 39 37 34 32 29 29 29 30 29 27 26 26 27 27 28 29 30 30 30 29 29 30 32 34 35 37 38 39 41 42 43 45 47 49 51 53 55 58 61 63 66 68 70 72 74 76 78 80 82 84 87 89 91 93 95 96
67 65 63 61 60 59 58 57 56 55 54 53 51 49 49 49 48 47 47 47 47 46 45 45 44 44 43 43 42 41 38 36 32 29 28 28 28 28 28 26 26 26 27 28 29 29 29 29 29 29 29 30 32 34 36 37 38 39 40 42 43 45 47 48 50 53 55 58 60 62 64 66 68 70 71 73 75 78 80 83 86 88 90 91 93
66 64 62 60 58 57 56 56 55 55 54 52 50 49 49 49 48 47 47 47 47 46 45 44 44 43 42 42 42 41 40 37 34 31 28 26 26 27 27 26 25 26 26 27 28 28 28 29 29 28 28 29 31 33 34 36 37 38 39 40 41 43 45 46 48 50 52 54 56 58 60 62 64 66 68 70 72 74 77 79 82 84 86 88 90
65 63 61 59 57 56 55 55 54 54 54 52 51 50 49 49 47 46 46 47 47 46 45 44 43 42 42 41 41 41 40 39 37 34 30 27 26 25 26 26 25 25 25 26 27 27 27 28 28 28 28 28 29 31 33 34 35 37 38 39 40 41 43 44 45 47 49 51 53 55 56 58 61 63 65 67 69 71 73 75 77 80 83 85 86
64 62 59 57 56 55 54 54 54 53 53 52 51 51 50 49 47 46 45 46 46 45 44 43 43 42 41 41 40 40 39 38 37 35 33 30 27 25 25 25 25 25 25 25 26 26 26 27 27 27 27 27 28 29 31 33 34 35 37 38 38 39 40 42 43 45 46 48 50 52 53 55 57 60 62 64 66 68 69 71 74 76 78 81 83
62 60 58 56 54 53 53 52 52 52 52 52 52 51 50 49 47 45 45 45 45 45 44 43 42 42 42 40 39 39 38 38 37 35 34 31 29 27 25 24 24 25 25 25 25 25 25 26 26 27 27 27 27 28 29 31 32 34 35 36 37 38 39 40 41 43 44 45 47 49 50 52 54 56 58 61 63 64 66 68 70 73 74 76 79
61 58 56 54 53 52 52 51 51 51 50 50 51 51 49 48 46 45 44 44 44 44 44 43 42 42 42 41 39 38 37 37 37 36 34 32 30 28 26 24 24 24 24 25 25 25 25 25 25 26 27 27 27 27 28 29 31 32 34 35 36 37 37 38 39 41 42 43 44 46 48 49 51 52 55 57 59 61 63 65 67 69 71 73 75
60 57 54 53 51 51 50 50 50 49 49 49 50 49 48 47 46 45 44 43 43 43 43 43 42 41 41 40 39 38 37 36 36 35 35 33 32 30 28 26 24 24 24 24 24 25 24 24 24 25 26 27 27 27 27 28 29 30 32 33 35 36 36 37 38 39 40 41 42 43 45 47 48 50 51 53 55 57 59 62 65 67 68 70 72
59 56 54 52 51 50 50 49 49 48 48 48 48 48 47 47 46 45 44 43 42 42 42 42 42 41 41 40 39 38 37 35 35 34 34 33 33 32 30 28 26 24 23 23 24 24 24 24 24 24 25 26 27 27 27 27 28 29 30 32 33 34 35 36 37 38 39 40 41 42 43 44 45 47 49 51 52 54 56 59 61 64 66 67 69
58 55 53 52 50 50 49 49 48 47 47 47 46 46 46 46 46 45 44 43 42 41 41 42 41 41 41 40 38 38 37 36 35 34 33 33 33 32 32 30 28 26 24 23 23 24 24 24 24 24 24 25 26 27 27 27 28 29 29 31 32 33 34 35 36 37 38 39 40 40 41 42 43 45 46 48 50 52 53 55 58 60 63 64 66
56 54 53 51 50 49 49 48 48 47 46 46 45 45 45 46 46 45 45 43 42 41 41 41 40 40 40 39 38 37 37 36 35 34 33 32 32 32 32 31 30 28 26 24 23 23 23 24 24 24 24 24 25 26 27 27 27 28 29 30 31 32 33 34 35 36 37 38 39 40 40 41 42 43 44 45 47 49 51 53 55 57 59 61 63
54 53 52 51 50 49 48 47 47 46 46 45 44 43 43 44 45 45 45 44 43 41 40 40 40 39 39 39 38 37 36 36 35 34 33 32 32 32 32 32 30 29 28 26 24 23 23 23 24 24 25 24 24 25 26 27 27 28 28 29 30 31 33 34 35 36 36 37 38 39 40 40 41 42 42 43 45 46 48 50 52 54 56 58 60
53 52 51 50 49 48 46 46 46 45 44 43 43 42 42 42 43 43 44 44 43 42 40 40 39 39 39 38 38 37 36 36 35 34 34 33 33 32 32 32 31 30 29 28 26 25 24 23 24 24 25 25 25 25 25 26 27 28 28 29 29 30 32 33 34 35 36 37 37 38 39 40 41 41 42 42 43 44 46 48 50 52 54 56 57
52 51 50 49 48 46 45 44 44 43 42 42 41 40 40 40 40 41 42 43 43 42 41 40 39 39 38 38 37 37 36 36 35 35 34 34 33 33 33 32 32 31 30 28 27 27 26 25 24 24 24 25 26 26 26 26 27 28 28 29 30 30 31 32 33 35 36 37 37 38 39 40 40 41 41 42 42 43 44 45 47 49 51 53 55
50 49 48 47 46 45 44 43 42 41 40 40 39 39 39 39 39 39 39 40 41 41 41 40 39 38 38 38 37 37 36 36 35 35 34 34 33 33 33 32 32 32 31 30 28 28 27 26 25 25 25 25 26 26 27 27 27 27 28 29 30 31 31 31 32 34 35 36 37 38 39 39 40 41 41 41 42 42 43 44 45 47 48 50 52
49 48 47 46 45 44 43 42 41 40 39 39 38 38 38 38 37 37 37 37 38 39 39 39 38 38 37 37 37 36 36 35 35 35 35 34 34 33 33 32 32 32 31 30 30 29 28 28 27 26 26 26 26 26 27 28 28 28 28 29 30 31 32 32 32 33 34 35 36 37 38 39 40 40 41 41 42 42 43 43 44 45 46 48 49
48 47 46 45 44 42 42 41 41 40 39 38 38 37 37 37 36 36 36 36 36 36 37 38 38 38 37 37 36 36 35 35 35 35 35 34 34 34 34 33 33 32 32 31 30 30 29 29 28 28 27 27 27 27 27 28 29 29 30 30 30 31 32 32 33 33 33 34 35 37 38 39 39 40 41 41 42 42 43 43 44 44 45 46 47
47 46 45 44 42 41 41 40 40 39 39 38 37 37 36 36 35 35 35 34 34 35 36 37 37 38 38 37 37 36 35 35 34 34 34 34 34 34 34 33 33 33 32 32 31 30 30 30 29 29 29 29 28 28 28 28 29 29 30 31 31 32 33 33 33 33 34 34 35 36 37 38 39 40 40 41 41 42 43 43 44 44 44 45 46
47 45 44 43 42 41 40 40 39 39 38 37 37 36 36 35 35 34 34 34 34 34 35 36 37 37 38 38 37 37 36 35 35 35 35 35 35 34 34 34 33 33 33 33 32 31 31 30 30 30 30 30 30 29 29 28 28 29 30 31 32 32 33 34 34 35 34 35 35 36 36 37 38 39 40 41 41 42 42 43 44 44 44 45 45
46 45 44 43 42 41 40 40 39 39 38 37 37 36 35 35 34 34 34 34 34 34 35 36 36 37 37 38 38 37 37 37 36 36 36 36 36 36 36 35 35 34 34 33 33 32 32 32 32 31 31 31 31 31 30 30 29 29 29 30 31 32 33 34 35 36 36 35 35 36 36 37 38 39 40 40 41 42 42 43 43 44 44 45 45
45 44 43 43 42 41 41 40 40 39 39 38 37 36 36 35 34 34 34 34 34 34 35 36 36 37 37 37 37 38 38 38 37 37 38 38 38 38 37 37 36 36 35 34 34 34 34 33 33 33 33 33 32 32 31 31 30 30 30 30 31 32 33 34 35 36 37 37 37 36 36 37 38 39 40 40 41 41 42 43 43 44 44 45 45
45 44 43 42 42 42 41 41 40 40 40 39 38 37 37 36 35 35 35 35 35 35 35 36 36 37 37 37 37 38 38 38 38 38 38 39 39 39 38 38 38 37 36 35 35 35 35 35 35 34 34 34 34 34 33 32 31 30 30 30 31 32 33 34 35 36 37 38 38 38 37 37 38 38 39 40 40 41 41 42 43 44 44 45 45
45 44 43 42 42 42 41 41 41 41 41 40 40 39 38 37 37 36 36 36 36 36 36 36 37 37 37 37 38 38 38 39 39 39 39 39 40 40 39 39 39 38 37 37 36 36 36 36 36 36 36 36 36 36 35 34 33 31 30 30 31 31 32 34 35 36 37 39 39 39 39 38 38 38 39 40 41 41 41 41 42 43 44 45 45
44 44 43 42 42 42 41 41 41 41 41 41 40 40 40 39 38 38 38 37 37 37 37 38 38 38 38 38 39 39 39 40 40 40 40 40 40 40 40 40 40 39 39 38 38 37 37 37 37 37 37 37 37 37 37 36 35 33 32 31 30 31 32 33 34 36 37 39 40 40 40 40 39 39 39 40 41 41 42 41 41 42 43 44 45
44 44 43 42 42 42 42 41 41 41 41 41 41 41 41 41 40 40 40 39 39 39 39 39 39 39 40 40 40 40 41 41 41 41 41 41 41 41 41 40 40 40 40 39 39 39 39 38 38 38 38 38 38 38 38 38 37 35 34 32 31 31 32 33 34 35 37 38 40 41 41 41 41 40 40 40 40 41 42 42 42 42 42 43 44
44 44 43 43 43 43 42 42 42 42 42 42 42 42 42 42 42 42 41 41 41 41 41 41 41 41 41 41 41 42 42 42 42 42 42 42 42 42 42 41 41 41 41 41 41 40 40 40 40 40 39 39 39 39 39 38 38 37 36 34 33 32 32 33 34 35 36 38 39 41 41 42 42 42 41 41 41 41 42 42 42 43 43 43 44
45 45 44 44 44 44 44 43 43 43 44 43 43 43 43 43 43 43 43 43 43 43 43 43 42 42 42 42 43 43 43 44 44 44 43 43 43 43 43 43 43 42 42 42 42 42 42 42 41 41 41 41 41 41 40 39 38 38 37 36 34 33 33 33 34 35 36 37 38 40 41 42 42 43 43 42 42 42 42 42 43 43 43 44 44
46 46 45 45 45 45 45 45 45 45 45 45 45 45 45 45 45 45 45 45 45 45 45 44 44 44 44 44 44 44 44 45 45 45 45 44 44 44 44 44 44 44 44 44 43 43 43 43 43 43 43 43 43 42 42 40 39 38 37 37 36 35 33 33 34 35 36 37 38 39 40 42 43 43 43 43 43 43 43 43 43 43 43 44 44
Wind_Direction
336 336 336 336 336 336 336 336 335 335 335 336 336 336 336 334 334 333 330 327 324 321 318 313 306 299 294 289 284 279 273 268 264 260 257 255 254 252 249 247 245 243 241 240 239 237 236 235 234 234 233 233 232 231 231 230 230 230 230 230 230 230 231 232 233 233 233 233 234 234 235 236 237 237 238 239 239 240 241 240 239 239 239 239 239
335 335 335 335 335 335 335 335 334 334 334 334 335 335 335 334 333 333 331 328 325 322 320 315 310 303 297 291 287 283 278 272 267 263 260 257 254 253 251 249 247 245 242 240 239 238 237 235 234 234 233 233 232 232 231 231 230 230 230 230 230 231 231 231 232 233 233 233 234 234 235 235 236 237 237 238 239 239 240 241 241 240 239 239 239
334 334 334 334 334 334 334 333 333 333 332 333 334 334 334 334 333 332 331 330 326 323 320 317 313 307 301 295 289 286 282 277 272 267 263 259 256 253 252 250 249 247 245 242 240 238 237 236 235 234 234 233 233 232 232 232 231 231 230 230 231 231 231 231 232 233 233 234 234 234 234 235 236 236 237 237 238 239 239 240 241 241 241 240 239
333 333 333 333 332 332 332 332 332 332 331 331 332 333 333 333 332 331 331 330 327 324 321 319 315 310 305 299 293 287 284 280 276 271 266 262 258 255 252 251 249 249 247 245 242 240 238 237 236 235 234 234 234 233 233 232 232 231 231 231 231 231 231 232 232 232 233 234 234 234 234 235 235 236 237 237 238 238 239 239 240 241 242 242 241
332 332 332 332 331 331 331 331 331 330 330 330 331 331 332 332 331 331 331 331 329 325 322 319 317 312 307 302 297 290 285 282 279 276 271 266 261 258 254 252 250 249 248 247 245 242 240 238 237 237 235 235 234 234 233 233 233 232 231 231 231 231 232 232 232 232 233 233 234 235 235 235 235 236 236 237 238 238 239 239 240 240 241 242 242
331 331 331 331 330 330 330 330 330 329 329 329 329 330 331 331 330 330 330 331 329 327 323 320 318 314 309 305 300 295 289 284 281 278 275 270 265 261 257 254 251 249 248 248 247 245 242 239 238 237 236 235 235 234 234 233 233 233 232 232 231 231 231 232 232 233 233 233 234 235 235 236 235 236 236 237 237 238 239 239 240 240 241 241 242
331 330 330 330 330 330 329 329 329 328 328 327 328 329 329 330 329 329 330 330 330 328 324 321 319 316 311 307 303 299 293 287 283 280 277 273 268 263 260 256 253 251 249 248 247 246 244 242 239 238 237 236 236 235 234 234 234 233 233 233 232 232 231 231 232 232 233 233 234 234 235 236 236 236 236 237 237 238 238 239 240 240 241 241 242
330 330 330 329 329 329 329 328 328 327 327 326 327 328 328 329 329 328 328 329 330 328 325 322 319 317 313 308 305 302 298 292 286 282 279 276 272 266 262 259 255 252 251 249 247 247 246 244 242 239 238 237 236 235 234 234 234 234 233 233 233 232 232 232 232 232 232 233 233 234 235 235 236 236 236 237 237 238 238 239 239 240 240 241 242
329 329 329 329 328 328 328 328 327 326 326 325 326 327 327 328 328 327 327 328 329 329 326 323 320 318 315 311 307 304 301 297 291 285 282 279 275 270 264 261 258 254 252 250 249 247 247 246 244 241 239 238 237 236 235 234 234 234 234 234 233 233 233 233 233 233 233 233 233 234 234 235 236 236 237 237 237 237 238 239 239 240 240 241 241
328 328 328 328 327 328 328 327 326 325 324 324 325 326 326 327 327 327 327 328 328 328 327 324 321 319 316 312 309 305 303 300 295 289 285 282 279 275 268 263 260 257 254 251 250 248 247 246 245 244 241 240 238 237 236 235 234 234 234 234 234 234 234 234 234 234 234 234 234 235 235 235 236 236 237 237 237 237 237 238 239 239 240 240 241
327 327 327 326 326 327 327 326 325 324 323 323 324 325 326 326 326 326 326 327 327 327 327 325 323 320 317 314 311 307 305 302 298 294 289 284 281 279 274 267 261 259 257 254 251 250 248 246 245 244 243 241 240 238 236 236 235 235 234 234 234 234 234 234 234 234 234 234 235 235 236 236 237 237 238 238 238 238 238 238 238 239 239 240 241
326 326 326 325 325 326 326 325 324 323 323 322 323 324 325 325 325 325 325 325 326 327 326 325 324 321 318 315 312 309 306 304 301 297 292 288 284 281 278 273 265 261 259 257 253 251 249 248 246 245 244 242 241 239 238 237 236 235 235 235 234 234 234 234 234 234 234 234 235 235 236 236 237 238 238 239 239 239 239 239 239 239 239 240 240
325 325 325 324 324 325 325 324 324 323 322 322 322 323 324 324 324 324 324 324 325 325 325 325 324 322 320 316 313 310 308 305 302 299 295 291 288 284 281 277 271 264 260 259 257 253 251 249 247 246 244 243 242 240 239 238 237 236 236 235 235 235 234 234 234 234 234 234 235 235 235 236 236 237 238 239 239 240 240 241 241 241 240 240 240
324 324 324 323 323 324 324 323 323 322 321 321 321 322 323 323 323 324 323 323 324 324 324 324 324 323 321 318 314 311 309 307 304 301 297 293 290 287 284 281 276 269 262 259 258 257 253 251 249 247 245 244 243 242 240 239 238 237 236 236 235 235 235 235 235 235 235 235 235 235 235 236 236 237 237 238 239 240 240 241 241 241 241 241 241
323 323 323 322 322 322 322 322 322 321 320 320 320 321 322 322 322 323 322 322 323 323 323 323 323 323 322 319 316 312 310 308 306 303 299 295 292 290 287 284 280 275 268 261 259 258 257 254 251 248 246 245 243 242 241 240 239 238 237 237 236 236 236 236 236 235 235 235 235 236 236 236 236 237 237 238 239 240 240 241 241 242 242 242 242
323 322 321 321 321 321 321 321 321 320 319 319 319 320 321 321 321 322 321 321 321 322 322 322 322 323 323 321 317 314 311 309 307 305 301 297 294 292 289 287 283 279 274 266 260 258 257 256 254 251 249 246 244 243 242 241 240 239 238 238 237 237 236 236 236 236 236 236 236 236 236 237 237 237 237 238 238 239 240 241 241 242 242 243 243
323 322 320 321 321 320 320 320 319 319 319 318 318 319 320 320 320 321 320 320 320 321 321 321 321 322 323 322 319 315 312 310 308 306 303 300 296 293 291 288 286 283 278 272 265 260 257 256 255 254 252 249 246 244 243 242 241 240 239 239 239 238 237 236 236 236 236 236 236 236 236 237 237 237 238 238 238 238 239 240 241 242 242 243 243
322 321 320 320 320 319 319 318 318 318 318 317 317 318 318 319 319 319 319 319 319 320 320 320 320 321 322 322 320 317 313 311 308 306 304 301 299 296 292 289 287 285 282 277 270 264 259 257 255 254 253 251 249 246 244 243 242 240 240 239 239 239 238 238 237 236 235 236 236 236 236 236 237 237 238 239 239 239 239 239 240 240 241 242 242
322 321 321 320 319 318 318 317 317 317 317 316 316 316 317 317 317 318 318 318 318 319 320 319 319 320 321 322 321 318 315 312 309 307 305 302 301 299 295 291 288 286 283 281 276 269 263 259 256 255 254 253 251 249 247 245 243 242 241 240 239 239 239 238 238 237 236 236 236 236 237 237 237 237 238 238 239 239 239 239 239 240 240 241 241
322 321 321 320 319 318 317 316 316 316 316 316 315 315 315 316 316 317 317 317 318 318 318 319 318 318 319 320 320 319 317 314 310 308 306 304 301 300 298 294 289 286 284 282 280 275 269 263 259 256 255 253 252 251 249 247 244 243 242 241 240 239 239 238 238 237 237 237 236 237 237 237 237 238 238 238 239 239 239 239 239 239 240 240 240
322 322 321 320 319 318 316 316 316 315 315 315 315 314 315 315 316 316 316 316 317 317 318 318 318 318 318 319 320 320 318 315 312 309 306 304 302 301 299 296 292 287 285 283 282 280 275 269 263 259 256 254 252 251 250 248 246 244 243 242 241 240 239 238 238 237 237 237 237 237 237 237 238 238 238 238 239 239 239 240 240 240 240 239 239
323 323 322 320 319 317 316 316 315 315 314 314 314 314 314 314 315 315 315 315 316 316 317 317 317 317 317 318 319 319 319 317 314 310 307 305 303 301 300 298 295 290 286 284 283 281 278 274 268 263 259 257 254 252 250 249 248 246 245 243 242 241 240 239 239 239 238 237 237 237 238 238 238 239 239 239 239 239 240 240 240 240 240 240 240
323 323 322 320 319 317 316 316 315 314 314 314 314 314 313 313 314 315 314 314 315 315 316 316 316 316 316 316 317 318 318 317 315 311 308 305 303 301 300 299 297 293 288 285 283 281 279 277 272 267 263 260 257 255 252 250 249 248 246 244 243 242 241 240 239 239 239 239 238 238 238 238 239 239 240 240 240 241 241 241 241 240 240 240 240
323 322 321 320 319 318 317 316 315 314 314 314 314 313 312 312 313 314 313 313 313 314 315 315 315 315 315 316 316 317 317 317 316 313 309 306 304 302 300 299 298 295 291 286 283 281 280 278 276 271 267 263 260 258 255 252 250 249 247 246 244 243 242 242 241 240 240 240 240 239 239 239 239 239 240 240 241 241 241 241 241 240 240 240 239
323 322 321 320 319 318 317 316 315 314 313 314 314 313 311 311 313 313 312 312 312 313 313 313 314 314 314 315 315 315 316 316 316 314 311 307 305 304 302 301 299 298 294 289 284 282 281 279 277 274 270 266 263 260 258 255 252 250 248 247 246 244 243 243 242 242 241 241 241 241 240 241 240 240 240 241 241 241 241 241 240 240 239 239 239
322 321 321 320 319 318 317 316 315 314 314 314 313 312 311 311 312 312 312 311 311 311 312 312 313 313 313 313 314 314 315 315 316 315 312 308 306 304 303 302 300 299 296 292 287 283 281 279 278 276 273 269 265 262 260 258 255 252 250 248 247 246 245 244 243 243 242 242 241 241 241 241 241 241 241 241 241 241 240 240 240 240 239 239 239
321 321 320 320 319 318 318 317 315 314 314 313 312 311 310 310 311 312 311 310 309 310 310 311 311 311 312 312 312 313 313 315 315 316 314 311 308 305 304 303 301 299 297 295 290 285 281 279 278 276 274 271 268 265 262 259 257 254 252 249 248 247 246 245 244 244 243 243 243 242 241 240 241 241 241 241 241 241 241 241 241 240 240 239 239
320 320 320 320 319 318 318 317 316 314 314 313 311 310 310 310 311 311 310 309 308 309 309 310 310 310 310 310 311 311 312 313 314 315 315 314 312 309 307 306 304 301 298 296 293 288 283 279 277 276 275 273 270 267 265 262 259 256 254 251 249 247 247 246 246 245 245 244 244 243 242 241 240 240 241 241 241 241 241 241 241 241 241 240 239
319 319 320 320 319 319 318 317 316 315 314 312 311 310 310 311 311 310 309 308 308 308 308 309 309 309 309 309 309 310 311 312 313 313 314 314 313 312 311 308 306 304 301 298 296 292 287 282 278 276 275 274 272 269 267 264 262 259 257 254 252 249 247 247 246 246 246 245 245 244 244 243 242 241 240 240 241 241 241 241 242 241 241 241 240
318 319 319 320 320 319 318 317 316 315 313 311 310 310 311 311 311 310 308 308 307 307 307 307 308 308 308 308 308 309 310 310 311 312 313 313 313 313 312 310 308 306 303 300 298 295 291 287 282 278 276 274 273 271 269 266 264 261 259 258 255 253 250 248 247 246 246 246 245 245 245 245 244 243 242 241 241 241 241 242 242 242 242 241 241
317 318 319 319 319 319 317 316 315 314 313 311 310 311 311 311 310 309 308 308 307 306 306 307 307 306 307 307 307 308 308 309 310 311 312 312 313 313 312 312 310 308 305 301 299 297 294 290 285 281 278 276 274 273 271 269 266 264 261 260 258 256 254 251 249 248 246 246 245 245 245 245 245 245 244 243 242 241 241 241 242 242 242 242 242
316 317 318 319 318 318 317 316 314 313 312 311 310 310 310 309 308 308 307 307 306 306 306 306 306 306 306 306 306 306 307 307 308 309 310 311 312 312 312 312 312 310 307 304 301 299 297 294 290 285 280 277 276 274 273 272 270 267 264 262 260 258 257 255 253 251 249 247 246 245 245 245 245 245 245 245 244 243 242 241 241 242 242 242 242
315 316 316 317 317 317 316 314 313 311 310 310 310 310 309 308 307 307 306 306 306 305 305 305 305 305 305 305 305 305 305 306 307 308 309 309 310 311 311 312 312 311 309 307 303 301 299 297 295 290 285 280 277 275 274 273 272 271 268 266 263 261 259 257 256 254 252 251 249 247 246 245 244 244 245 245 245 245 244 243 242 242 242 243 243
314 314 314 315 316 315 314 313 311 310 309 309 309 309 308 307 306 306 306 305 305 304 304 304 303 303 303 303 304 304 304 304 305 306 307 308 308 309 310 311 311 312 311 309 306 303 301 300 298 295 291 286 280 276 274 273 272 272 271 269 267 264 262 260 258 255 254 253 252 251 249 248 246 245 244 244 244 245 245 244 244 243 243 243 243
313 313 313 314 314 314 313 312 310 309 308 308 308 307 306 305 305 305 305 305 304 304 304 303 303 302 302 303 303 303 303 303 304 305 306 306 306 306 307 309 311 311 311 311 309 306 303 301 299 298 295 292 287 281 277 273 271 270 270 269 268 266 264 262 260 258 255 253 252 252 251 250 249 248 246 245 244 244 244 244 244 244 244 244 244
312 311 311 312 313 313 312 310 309 308 307 307 306 306 305 304 304 304 304 304 304 304 303 303 302 302 302 303 303 302 302 302 303 304 304 304 305 305 307 308 310 311 311 311 310 309 306 303 301 299 298 296 292 288 283 277 273 270 269 269 268 267 265 264 262 261 259 256 254 252 251 251 251 250 249 248 247 246 245 244 244 244 244 245 245
310 309 309 310 311 312 311 310 308 307 306 306 305 305 304 303 303 303 303 303 303 303 303 302 302 302 302 302 302 302 302 302 302 303 303 304 304 305 306 308 309 310 310 310 310 309 308 306 304 301 300 298 296 293 288 283 277 273 270 268 267 267 266 264 262 261 260 259 257 254 252 251 250 250 250 250 249 248 247 246 245 244 244 244 245
308 307 307 309 310 310 310 309 308 306 306 306 305 305 304 303 302 302 301 301 301 301 301 301 302 302 302 302 302 301 301 302 302 302 303 303 303 304 305 306 307 308 309 309 309 308 307 307 306 304 302 301 299 296 293 288 283 277 272 269 267 266 266 264 263 261 260 259 258 257 255 252 251 249 249 249 249 249 249 249 248 247 245 245 244
306 306 306 308 309 310 309 309 308 307 306 306 306 305 304 303 302 302 301 300 300 300 300 301 301 302 302 301 301 300 301 301 301 302 302 301 301 301 302 303 304 306 307 308 308 307 307 306 306 305 304 303 301 298 295 292 287 282 277 272 268 266 265 265 264 262 260 258 258 257 256 255 253 251 250 248 248 248 248 248 249 248 248 247 246
306 305 306 307 308 309 309 309 308 308 307 307 307 306 305 304 303 302 301 300 299 300 300 300 301 301 301 300 299 299 299 299 299 299 299 299 299 300 301 303 304 305 305 306 306 305 305 305 305 305 305 304 303 301 298 294 290 286 281 276 271 267 265 264 264 263 262 259 258 257 256 256 256 254 252 250 249 248 248 247 247 248 248 248 247
305 305 306 307 309 309 309 309 308 308 308 308 307 306 305 304 302 301 301 300 300 300 301 301 301 301 300 300 299 299 298 298 298 297 297 297 297 298 299 300 301 302 303 303 304 304 303 303 304 304 304 304 303 301 299 296 292 288 284 280 275 271 266 264 263 263 263 261 259 257 256 255 255 255 254 253 251 250 249 248 248 247 247 247 247
305 306 307 308 309 309 309 309 309 308 308 308 307 306 305 303 302 301 301 302 302 302 302 301 300 300 300 300 300 299 299 298 298 297 296 296 297 297 297 298 299 300 301 301 302 302 302 302 302 302 303 303 302 301 300 297 293 289 285 282 278 274 270 265 262 261 261 261 261 259 257 255 254 254 254 254 253 252 251 250 249 249 248 247 246
305 306 307 309 309 309 310 309 309 309 308 308 307 306 305 303 302 302 302 303 303 303 302 301 300 300 300 300 300 300 299 299 298 298 297 297 297 297 298 298 299 299 300 300 301 301 301 301 300 301 301 302 302 301 300 298 294 290 286 283 279 276 272 268 264 261 260 259 259 259 259 257 255 253 253 252 252 252 252 251 250 250 249 249 248
306 307 308 309 309 310 310 310 309 309 308 308 307 306 305 304 303 302 302 302 303 302 302 301 300 300 300 300 300 300 299 299 299 298 298 298 298 298 299 299 299 299 299 299 299 300 299 299 299 300 300 301 301 301 300 298 295 291 287 283 280 276 273 270 267 263 261 259 258 258 258 258 257 255 253 252 251 251 251 251 251 250 250 249 249
307 308 308 309 309 309 309 309 309 308 308 307 306 306 305 304 303 302 301 301 301 301 300 300 300 300 300 299 299 299 299 298 298 297 297 297 297 297 298 298 298 298 298 297 298 298 298 298 299 299 300 300 301 300 300 298 295 292 288 284 281 277 274 271 268 265 262 260 259 257 257 257 257 256 255 254 252 251 250 250 251 251 250 250 249
308 308 309 309 309 308 308 308 308 307 307 306 306 305 304 303 302 301 300 299 299 299 299 299 299 299 299 299 298 298 297 297 296 296 295 295 295 296 296 296 296 296 296 296 296 296 296 297 297 298 299 300 301 301 300 298 296 293 289 285 281 278 275 271 269 266 263 260 259 258 257 257 257 256 256 255 254 253 251 249 249 250 250 250 249
308 308 308 308 307 307 306 306 306 305 304 304 304 303 302 302 300 299 298 297 297 297 297 297 298 298 298 298 298 297 297 296 296 295 295 294 294 294 294 295 295 295 295 295 295 295 295 295 296 297 298 299 300 300 300 299 297 294 290 286 282 279 275 272 269 266 264 261 259 258 257 257 257 257 256 256 256 255 253 251 249 248 249 250 250
308 308 307 307 306 305 305 304 304 303 302 302 301 301 300 300 299 298 297 297 296 296 296 296 296 297 297 297 297 297 296 296 296 295 295 294 294 294 294 293 293 294 294 294 294 294 295 295 295 296 297 298 299 299 299 298 297 295 291 288 284 280 276 272 269 266 264 261 260 258 257 257 256 257 256 256 256 256 255 253 252 250 249 249 249
308 307 307 306 305 305 304 304 303 302 301 301 300 299 299 298 298 297 297 296 295 295 294 294 295 295 295 295 296 296 296 295 295 295 295 295 294 294 294 293 293 293 293 293 294 294 294 294 295 296 297 298 298 298 298 297 296 294 292 289 285 281 277 273 270 266 263 261 259 258 257 256 256 256 256 256 256 256 256 255 254 252 251 250 250
308 307 307 306 306 305 305 304 303 302 301 301 300 299 299 298 297 297 296 295 295 294 294 294 294 294 294 294 294 294 295 295 294 294 294 294 294 294 293 293 293 293 293 293 293 293 294 294 295 296 297 297 298 297 297 296 295 293 291 289 286 283 279 275 271 267 264 261 259 257 256 256 255 256 256 256 256 256 256 256 255 253 252 251 250
308 307 307 306 306 305 304 303 303 302 301 301 300 299 298 298 297 296 296 295 294 294 293 293 293 293 293 294 294 294 294 294 294 294 294 294 294 294 293 293 293 293 292 292 292 293 293 294 294 295 296 297 297 297 296 295 294 292 290 288 286 283 279 276 272 268 265 262 260 257 256 255 255 255 255 255 256 256 256 256 256 255 253 252 251
Height
10177 10168 10160 10153 10146 10138 10131 10123 10115 10108 10102 10097 10091 10086 10080 10073 10067 10061 10055 10049 10044 10040 10036 10033 10030 10027 10023 10020 10019 10018 10017 10015 10014 10013 10012 10012 10012 10013 10014 10016 10018 10021 10024 10027 10031 10035 10040 10044 10048 10053 10058 10064 10072 10078 10084 10091 10100 10108 10115 10124 10132 10140 10148 10152 10160 10171 10177 10182 10191 10198 10204 10211 10218 10225 10231 10237 10244 10248 10254 10262 10272 10283 10294 10304 10314
10170 10161 10153 10145 10138 10131 10124 10116 10109 10102 10096 10090 10085 10080 10074 10068 10062 10056 10050 10044 10039 10034 10030 10026 10023 10020 10017 10014 10011 10010 10009 10008 10006 10005 10004 10004 10003 10004 10004 10006 10008 10010 10013 10016 10019 10022 10027 10031 10034 10038 10043 10048 10055 10061 10067 10074 10081 10090 10099 10106 10114 10122 10130 10135 10142 10150 10154 10160 10170 10178 10185 10193 10200 10206 10213 10220 10227 10233 10238 10244 10251 10261 10272 10283 10294
10164 10155 10146 10138 10130 10123 10117 10110 10102 10095 10089 10084 10079 10073 10068 10063 10057 10051 10045 10040 10034 10029 10024 10020 10017 10014 10011 10008 10005 10003 10001 10000 9999 9998 9997 9996 9995 9995 9995 9996 9997 9999 10001 10005 10007 10010 10014 10017 10020 10024 10029 10033 10039 10044 10051 10058 10065 10074 10081 10089 10097 10104 10111 10118 10125 10131 10136 10141 10149 10158 10166 10174 10181 10187 10193 10201 10209 10216 10223 10228 10234 10241 10251 10261 10272
10156 10148 10140 10131 10123 10116 10109 10103 10096 10089 10082 10077 10072 10067 10062 10057 10052 10046 10041 10035 10029 10024 10019 10015 10010 10007 10004 10002 9999 9996 9994 9992 9991 9990 9989 9988 9987 9987 9987 9987 9988 9989 9991 9993 9996 9999 10002 10005 10008 10012 10017 10021 10025 10030 10036 10042 10049 10057 10065 10073 10081 10088 10093 10100 10108 10114 10118 10123 10129 10138 10147 10156 10163 10169 10175 10183 10191 10198 10205 10212 10218 10225 10233 10240 10249
10148 10140 10132 10124 10117 10109 10102 10096 10089 10083 10076 10071 10066 10061 10056 10051 10046 10041 10035 10030 10025 10019 10014 10009 10005 10001 9998 9995 9992 9990 9987 9985 9983 9982 9981 9980 9979 9978 9978 9978 9979 9980 9981 9982 9984 9987 9990 9994 9997 10001 10005 10008 10011 10016 10022 10027 10034 10041 10049 10057 10064 10071 10077 10083 10091 10098 10103 10108 10113 10120 10128 10136 10145 10152 10158 10165 10173 10180 10187 10195 10201 10209 10217 10222 10228
10140 10132 10124 10117 10109 10102 10096 10089 10083 10076 10070 10065 10060 10055 10050 10045 10040 10035 10030 10025 10020 10014 10009 10004 10000 9995 9991 9988 9986 9983 9981 9978 9976 9975 9973 9972 9971 9970 9970 9970 9970 9970 9971 9972 9974 9976 9979 9982 9986 9989 9992 9995 9998 10002 10008 10013 10020 10027 10034 10040 10047 10054 10060 10066 10074 10080 10086 10093 10100 10104 10109 10117 10127 10134 10140 10146 10154 10162 10169 10178 10185 10192 10199 10205 10210
10131 10124 10116 10109 10102 10095 10088 10082 10076 10070 10064 10059 10054 10049 10044 10040 10034 10029 10024 10019 10014 10009 10004 9999 9994 9990 9985 9982 9979 9976 9974 9972 9970 9968 9966 9965 9964 9963 9962 9961 9961 9961 9962 9963 9964 9965 9968 9971 9974 9977 9980 9982 9985 9990 9996 10001 10006 10012 10018 10024 10030 10037 10044 10049 10054 10061 10068 10075 10082 10086 10091 10098 10107 10114 10121 10128 10136 10144 10151 10160 10167 10174 10181 10187 10193
10123 10116 10108 10101 10095 10088 10081 10074 10068 10062 10057 10052 10047 10043 10038 10033 10029 10024 10018 10013 10009 10004 9999 9994 9990 9984 9980 9975 9972 9970 9967 9965 9963 9961 9959 9958 9957 9956 9954 9953 9953 9953 9953 9954 9955 9956 9958 9960 9963 9966 9968 9971 9974 9978 9983 9988 9992 9997 10002 10007 10013 10020 10027 10032 10037 10044 10050 10056 10062 10068 10073 10079 10085 10093 10102 10109 10118 10127 10135 10141 10148 10155 10160 10166 10174
10115 10108 10101 10094 10088 10081 10075 10068 10061 10055 10050 10045 10041 10036 10031 10027 10022 10018 10013 10008 10003 9999 9994 9990 9985 9980 9974 9970 9966 9963 9961 9958 9956 9954 9953 9950 9949 9949 9947 9946 9945 9945 9945 9945 9946 9947 9948 9950 9952 9954 9957 9960 9963 9967 9971 9975 9979 9983 9987 9993 9999 10006 10012 10017 10023 10029 10034 10040 10046 10050 10055 10061 10067 10075 10082 10090 10099 10110 10117 10120 10125 10133 10140 10147 10157
10107 10100 10094 10087 10081 10075 10069 10062 10056 10050 10044 10039 10034 10030 10025 10020 10016 10011 10006 10002 9997 9993 9989 9984 9980 9975 9970 9964 9960 9957 9954 9952 9949 9947 9946 9944 9942 9941 9940 9939 9938 9937 9937 9937 9937 9938 9939 9940 9942 9944 9946 9949 9952 9955 9959 9962 9966 9969 9974 9979 9986 9992 9998 10003 10009 10015 10021 10027 10033 10036 10041 10047 10053 10058 10064 10071 10079 10088 10093 10097 10104 10115 10122 10127 10136
10099 10093 10086 10079 10073 10068 10062 10056 10050 10044 10038 10033 10028 10024 10019 10014 10009 10005 10000 9995 9991 9987 9983 9979 9975 9970 9965 9960 9955 9950 9948 9945 9943 9940 9938 9937 9935 9933 9933 9932 9931 9929 9928 9928 9929 9929 9930 9931 9933 9934 9936 9938 9941 9944 9947 9950 9953 9957 9961 9967 9972 9977 9982 9988 9993 10000 10007 10015 10020 10024 10029 10036 10041 10044 10048 10054 10060 10066 10071 10076 10084 10095 10102 10106 10116
10091 10085 10079 10072 10066 10061 10056 10050 10044 10038 10032 10026 10022 10017 10013 10008 10003 9999 9994 9989 9985 9981 9977 9973 9969 9965 9960 9954 9950 9945 9941 9939 9937 9934 9931 9930 9929 9927 9925 9925 9924 9923 9921 9920 9921 9921 9922 9923 9924 9925 9926 9928 9930 9933 9936 9939 9942 9945 9949 9954 9959 9963 9967 9972 9978 9984 9991 9999 10005 10010 10017 10023 10027 10030 10034 10039 10042 10047 10053 10059 10067 10079 10087 10091 10100
10083 10076 10071 10064 10059 10054 10049 10043 10037 10031 10025 10020 10016 10011 10007 10002 9998 9993 9988 9984 9980 9975 9972 9968 9964 9960 9955 9949 9944 9940 9936 9933 9930 9928 9926 9923 9921 9920 9919 9918 9917 9916 9915 9913 9913 9913 9913 9914 9915 9916 9917 9919 9920 9923 9926 9928 9931 9934 9938 9942 9945 9949 9953 9958 9963 9969 9976 9984 9990 9996 10001 10006 10010 10015 10019 10020 10022 10028 10038 10046 10054 10064 10072 10077 10086
10074 10068 10062 10056 10051 10046 10041 10036 10030 10024 10019 10014 10010 10005 10001 9996 9992 9987 9982 9978 9974 9970 9966 9962 9958 9954 9950 9945 9939 9935 9931 9927 9924 9922 9920 9917 9915 9913 9912 9911 9910 9909 9908 9907 9906 9905 9905 9906 9907 9908 9909 9910 9911 9913 9915 9918 9921 9924 9926 9930 9933 9937 9941 9946 9950 9956 9962 9969 9975 9979 9983 9989 9996 10001 10003 10004 10007 10015 10024 10032 10037 10044 10051 10059 10069
10066 10060 10054 10048 10042 10038 10033 10028 10023 10018 10012 10007 10003 9999 9995 9990 9986 9981 9977 9972 9968 9964 9960 9956 9953 9949 9945 9940 9935 9929 9925 9922 9918 9916 9914 9912 9909 9906 9905 9904 9903 9902 9901 9901 9899 9898 9897 9898 9898 9899 9900 9902 9903 9904 9906 9909 9911 9913 9916 9918 9922 9926 9930 9934 9939 9945 9950 9955 9960 9964 9968 9975 9982 9985 9988 9992 9997 10003 10009 10014 10019 10025 10033 10042 10052
10059 10052 10046 10040 10034 10029 10025 10021 10016 10011 10006 10000 9995 9991 9988 9984 9979 9975 9971 9966 9962 9958 9954 9950 9947 9944 9940 9936 9931 9925 9920 9917 9913 9910 9907 9906 9903 9901 9898 9897 9896 9895 9894 9894 9893 9892 9891 9890 9890 9891 9892 9893 9895 9896 9897 9899 9901 9903 9906 9908 9911 9915 9918 9922 9927 9933 9938 9942 9947 9951 9955 9961 9967 9970 9974 9979 9984 9989 9993 9998 10005 10012 10020 10028 10036
10051 10044 10038 10032 10027 10021 10017 10013 10009 10005 9999 9994 9989 9985 9981 9977 9973 9969 9965 9960 9956 9952 9948 9944 9940 9938 9934 9931 9926 9921 9915 9911 9908 9905 9901 9899 9898 9895 9892 9890 9889 9889 9888 9887 9886 9885 9885 9884 9883 9883 9884 9885 9886 9888 9889 9890 9892 9894 9896 9899 9901 9904 9907 9912 9917 9921 9925 9929 9933 9937 9941 9947 9951 9955 9959 9964 9969 9974 9979 9986 9995 10000 10004 10012 10020
10044 10036 10030 10024 10019 10013 10009 10005 10001 9998 9993 9987 9982 9978 9975 9971 9967 9963 9959 9955 9950 9946 9942 9938 9933 9931 9928 9925 9921 9917 9912 9906 9902 9900 9896 9893 9891 9890 9887 9885 9883 9882 9881 9880 9880 9879 9878 9877 9877 9877 9877 9877 9878 9880 9881 9882 9883 9885 9887 9889 9891 9894 9898 9902 9905 9907 9911 9916 9920 9924 9928 9932 9937 9941 9944 9948 9953 9959 9967 9975 9980 9980 9984 9995 10006
10036 10029 10023 10017 10011 10006 10001 9997 9993 9990 9986 9981 9976 9972 9968 9964 9961 9957 9953 9949 9945 9940 9936 9932 9927 9924 9922 9919 9916 9912 9908 9902 9897 9894 9891 9888 9885 9884 9882 9879 9877 9876 9874 9873 9873 9872 9871 9871 9871 9870 9870 9870 9871 9872 9873 9874 9876 9877 9878 9880 9883 9886 9889 9892 9893 9895 9900 9904 9907 9912 9916 9919 9924 9928 9930 9933 9938 9945 9953 9958 9959 9961 9970 9982 9990
10029 10022 10016 10010 10003 9998 9993 9989 9986 9982 9979 9975 9970 9965 9962 9958 9954 9950 9947 9943 9939 9935 9930 9926 9922 9917 9915 9913 9910 9907 9903 9898 9893 9889 9886 9883 9880 9878 9876 9874 9872 9870 9868 9867 9866 9866 9865 9864 9864 9864 9863 9864 9864 9864 9865 9866 9868 9869 9870 9872 9875 9877 9879 9880 9881 9885 9888 9891 9895 9899 9902 9906 9910 9913 9917 9921 9925 9930 9936 9939 9941 9948 9959 9967 9972
10021 10015 10009 10002 9996 9991 9986 9982 9978 9974 9971 9968 9963 9959 9955 9951 9948 9944 9940 9937 9933 9929 9925 9921 9916 9912 9908 9905 9903 9900 9897 9894 9889 9885 9881 9878 9875 9872 9870 9868 9866 9864 9862 9861 9860 9859 9858 9858 9857 9857 9857 9857 9857 9858 9858 9859 9860 9861 9862 9864 9867 9868 9868 9870 9872 9875 9877 9879 9883 9886 9890 9894 9897 9900 9905 9909 9913 9917 9921 9924 9928 9936 9945 9951 9955
10014 10007 10001 9995 9989 9983 9978 9974 9970 9967 9964 9960 9957 9952 9947 9944 9941 9938 9934 9930 9927 9923 9919 9915 9911 9907 9903 9900 9897 9894 9891 9888 9885 9881 9877 9873 9870 9868 9865 9863 9861 9859 9857 9856 9854 9853 9852 9851 9851 9850 9850 9850 9851 9851 9851 9852 9853 9854 9855 9856 9858 9858 9859 9861 9864 9865 9867 9870 9873 9876 9879 9883 9886 9889 9893 9897 9901 9905 9909 9912 9916 9924 9931 9937 9941
10006 10000 9994 9988 9982 9976 9971 9967 9963 9959 9956 9953 9950 9946 9941 9937 9935 9931 9928 9924 9920 9917 9913 9910 9906 9902 9898 9894 9892 9889 9886 9882 9879 9876 9872 9869 9866 9863 9860 9858 9855 9853 9852 9850 9849 9848 9846 9845 9844 9844 9844 9844 9844 9844 9845 9845 9846 9847 9847 9848 9850 9850 9851 9853 9855 9856 9858 9861 9863 9866 9869 9872 9876 9879 9882 9886 9890 9894 9898 9901 9906 9912 9919 9923 9928
9999 9993 9987 9981 9975 9970 9964 9960 9956 9952 9948 9946 9943 9939 9935 9931 9928 9925 9922 9918 9915 9911 9908 9904 9900 9896 9892 9888 9885 9883 9881 9878 9875 9871 9868 9864 9861 9858 9855 9853 9851 9848 9846 9845 9843 9842 9841 9839 9838 9838 9837 9837 9837 9837 9838 9839 9839 9840 9840 9841 9842 9843 9843 9845 9847 9848 9850 9852 9854 9856 9859 9863 9866 9869 9873 9876 9881 9885 9888 9891 9895 9899 9905 9909 9913
9992 9986 9981 9975 9969 9964 9958 9953 9949 9944 9941 9938 9936 9933 9929 9925 9922 9919 9915 9912 9909 9906 9902 9899 9895 9891 9887 9883 9879 9876 9874 9872 9870 9867 9863 9860 9856 9853 9850 9848 9846 9843 9841 9840 9838 9837 9836 9834 9833 9832 9831 9831 9831 9831 9831 9832 9833 9833 9834 9834 9834 9835 9836 9838 9839 9840 9841 9843 9845 9848 9851 9854 9857 9860 9863 9866 9870 9873 9875 9878 9882 9886 9890 9894 9899
9984 9979 9974 9968 9963 9957 9952 9947 9942 9938 9934 9931 9929 9926 9923 9919 9916 9913 9909 9905 9903 9900 9897 9893 9890 9886 9883 9879 9874 9870 9868 9865 9864 9861 9859 9856 9852 9849 9846 9843 9841 9839 9837 9835 9833 9831 9830 9829 9827 9826 9825 9825 9824 9824 9824 9825 9826 9826 9827 9827 9828 9828 9829 9830 9831 9832 9833 9835 9837 9840 9843 9846 9848 9850 9853 9855 9858 9861 9864 9867 9870 9874 9877 9882 9886
9977 9971 9966 9961 9956 9951 9946 9941 9936 9931 9927 9924 9922 9919 9916 9913 9911 9908 9904 9900 9896 9894 9891 9888 9884 9881 9878 9874 9870 9866 9862 9859 9857 9855 9853 9850 9847 9844 9841 9839 9836 9834 9832 9830 9828 9827 9825 9824 9822 9821 9820 9819 9818 9818 9818 9818 9819 9820 9820 9820 9821 9821 9822 9823 9824 9825 9826 9827 9829 9831 9834 9837 9839 9841 9843 9845 9848 9851 9854 9857 9859 9862 9866 9871 9875
9969 9964 9959 9954 9949 9944 9940 9935 9930 9925 9921 9917 9914 9912 9909 9906 9904 9902 9898 9894 9890 9887 9884 9882 9879 9876 9873 9870 9866 9862 9858 9854 9851 9849 9846 9844 9841 9839 9836 9834 9831 9829 9827 9825 9824 9822 9820 9819 9817 9816 9815 9814 9813 9812 9811 9812 9812 9813 9813 9814 9814 9815 9815 9816 9816 9817 9818 9820 9821 9823 9825 9827 9829 9832 9834 9836 9838 9841 9844 9847 9849 9852 9855 9860 9864
9962 9957 9952 9947 9943 9938 9934 9929 9924 9920 9915 9911 9907 9904 9902 9899 9897 9895 9892 9888 9884 9881 9878 9876 9873 9870 9867 9864 9861 9858 9854 9850 9847 9844 9841 9839 9836 9834 9831 9829 9827 9825 9822 9820 9819 9817 9815 9814 9812 9811 9810 9809 9807 9806 9806 9805 9806 9806 9806 9807 9808 9808 9809 9809 9809 9810 9811 9812 9813 9815 9817 9819 9821 9823 9825 9827 9829 9832 9835 9837 9838 9841 9845 9849 9852
9954 9950 9945 9941 9936 9931 9927 9923 9919 9914 9910 9905 9901 9897 9895 9892 9890 9888 9886 9883 9879 9875 9872 9870 9867 9864 9861 9858 9856 9853 9849 9845 9842 9839 9836 9834 9832 9829 9827 9824 9822 9820 9818 9816 9814 9812 9810 9809 9807 9806 9804 9803 9802 9801 9800 9800 9799 9800 9800 9800 9801 9802 9802 9803 9803 9803 9804 9805 9806 9807 9808 9810 9812 9814 9816 9818 9821 9824 9826 9828 9829 9831 9835 9838 9840
9947 9942 9938 9934 9929 9925 9921 9917 9913 9909 9904 9900 9895 9891 9888 9886 9883 9881 9879 9877 9873 9870 9866 9864 9861 9859 9856 9852 9850 9847 9844 9841 9837 9834 9831 9828 9826 9824 9822 9820 9818 9815 9814 9812 9809 9807 9806 9804 9802 9801 9799 9798 9797 9796 9795 9794 9794 9793 9794 9794 9794 9795 9795 9796 9797 9797 9798 9798 9799 9800 9801 9802 9804 9806 9808 9810 9812 9815 9818 9819 9820 9822 9824 9827 9830
9938 9935 9931 9926 9922 9919 9915 9911 9907 9903 9899 9895 9890 9886 9882 9879 9876 9874 9872 9870 9868 9864 9861 9858 9855 9852 9850 9847 9844 9841 9839 9836 9833 9830 9827 9824 9821 9819 9817 9815 9813 9811 9809 9807 9805 9803 9801 9799 9797 9796 9794 9793 9792 9791 9790 9789 9788 9787 9787 9788 9788 9788 9789 9789 9790 9790 9791 9792 9792 9793 9794 9795 9796 9798 9799 9801 9803 9806 9808 9810 9811 9813 9815 9818 9820
9931 9927 9923 9919 9916 9912 9908 9904 9901 9897 9894 9890 9885 9881 9876 9873 9870 9867 9865 9864 9862 9859 9856 9853 9850 9847 9844 9841 9839 9836 9833 9831 9828 9825 9823 9820 9817 9815 9812 9810 9808 9806 9804 9802 9800 9798 9796 9794 9792 9791 9789 9788 9787 9785 9784 9783 9782 9782 9781 9781 9781 9781 9782 9783 9783 9784 9784 9785 9785 9786 9787 9788 9789 9790 9792 9793 9795 9797 9799 9801 9803 9805 9807 9809 9811
9924 9920 9916 9912 9908 9905 9901 9898 9894 9891 9887 9884 9880 9876 9871 9867 9863 9860 9858 9857 9855 9853 9850 9847 9845 9842 9839 9836 9834 9831 9828 9826 9823 9820 9818 9815 9812 9810 9808 9805 9803 9801 9799 9797 9795 9793 9791 9789 9787 9786 9784 9783 9782 9780 9779 9778 9777 9776 9775 9775 9775 9775 9775 9776 9776 9777 9777 9778 9778 9779 9780 9780 9782 9783 9784 9786 9787 9789 9791 9793 9794 9796 9798 9800 9802
9916 9912 9908 9904 9901 9898 9894 9891 9887 9884 9881 9877 9874 9870 9866 9862 9857 9854 9851 9849 9848 9846 9844 9841 9839 9836 9834 9831 9828 9826 9823 9820 9818 9815 9813 9811 9808 9806 9803 9801 9798 9796 9794 9792 9790 9788 9786 9784 9783 9781 9779 9777 9776 9775 9774 9773 9772 9771 9770 9770 9769 9769 9769 9769 9769 9770 9771 9771 9772 9772 9772 9773 9774 9775 9777 9778 9780 9781 9783 9784 9786 9788 9789 9791 9793
9908 9904 9900 9897 9893 9890 9887 9884 9881 9877 9874 9871 9868 9865 9861 9857 9853 9848 9844 9842 9840 9839 9837 9835 9832 9830 9827 9825 9822 9820 9817 9815 9812 9810 9808 9805 9803 9801 9798 9796 9794 9791 9789 9787 9785 9783 9781 9779 9778 9776 9774 9772 9771 9770 9769 9768 9767 9766 9765 9764 9764 9763 9763 9763 9763 9763 9764 9764 9765 9765 9766 9766 9767 9768 9769 9771 9772 9774 9775 9777 9778 9780 9781 9783 9785
9901 9897 9893 9889 9886 9883 9880 9877 9874 9871 9868 9865 9862 9859 9855 9852 9849 9845 9840 9836 9833 9831 9830 9828 9826 9824 9822 9819 9817 9814 9812 9809 9807 9805 9802 9800 9797 9795 9793 9790 9788 9786 9784 9782 9780 9778 9776 9774 9773 9771 9769 9767 9766 9764 9763 9762 9761 9760 9760 9759 9758 9758 9757 9757 9757 9757 9757 9757 9758 9759 9759 9760 9761 9761 9762 9763 9764 9766 9767 9769 9771 9772 9774 9776 9777
9893 9889 9886 9882 9879 9876 9873 9870 9867 9864 9861 9858 9855 9852 9849 9847 9843 9840 9837 9833 9829 9826 9824 9822 9820 9818 9816 9814 9811 9809 9806 9803 9801 9799 9797 9795 9792 9790 9788 9786 9783 9781 9779 9777 9775 9773 9771 9769 9768 9766 9764 9762 9760 9759 9757 9756 9755 9754 9754 9753 9752 9752 9751 9751 9751 9751 9751 9751 9752 9752 9752 9753 9754 9755 9756 9756 9757 9758 9759 9761 9762 9764 9766 9768 9770
9885 9882 9878 9875 9871 9868 9865 9863 9860 9857 9854 9851 9848 9845 9843 9840 9838 9835 9832 9829 9825 9822 9819 9816 9814 9812 9811 9808 9806 9804 9801 9798 9796 9794 9792 9789 9787 9785 9783 9781 9779 9776 9774 9772 9770 9768 9766 9764 9763 9761 9759 9757 9756 9754 9752 9750 9749 9748 9748 9747 9747 9746 9745 9745 9745 9745 9745 9745 9745 9745 9746 9746 9747 9748 9749 9750 9751 9751 9752 9753 9755 9756 9758 9760 9762
9877 9874 9870 9867 9864 9861 9858 9855 9852 9849 9847 9844 9841 9838 9836 9833 9831 9828 9826 9823 9821 9817 9814 9811 9809 9807 9805 9803 9801 9799 9797 9794 9792 9790 9787 9785 9783 9780 9778 9775 9773 9771 9769 9767 9765 9763 9761 9759 9757 9756 9754 9752 9751 9749 9747 9745 9743 9742 9741 9740 9740 9740 9739 9739 9739 9739 9739 9739 9739 9739 9739 9740 9740 9741 9742 9743 9744 9745 9745 9746 9747 9749 9750 9752 9753
9868 9865 9862 9859 9856 9853 9851 9848 9845 9842 9839 9837 9834 9832 9829 9827 9824 9822 9820 9818 9815 9812 9809 9806 9803 9801 9799 9797 9795 9794 9792 9790 9788 9785 9783 9781 9778 9775 9773 9770 9768 9766 9764 9762 9760 9758 9756 9754 9752 9750 9749 9747 9745 9744 9742 9740 9738 9737 9735 9734 9733 9733 9733 9732 9732 9732 9732 9732 9733 9733 9733 9733 9734 9734 9735 9736 9737 9738 9738 9739 9740 9741 9743 9744 9745
9860 9857 9854 9851 9848 9845 9843 9840 9838 9835 9832 9830 9827 9825 9822 9820 9818 9815 9813 9811 9809 9806 9804 9801 9798 9795 9793 9790 9788 9787 9785 9783 9781 9779 9777 9775 9773 9770 9768 9766 9763 9761 9758 9756 9754 9753 9751 9749 9747 9745 9743 9742 9740 9738 9737 9735 9733 9731 9730 9728 9727 9726 9726 9725 9726 9726 9726 9726 9726 9726 9727 9727 9727 9728 9728 9729 9730 9731 9731 9732 9733 9734 9735 9736 9738
9852 9849 9846 9843 9841 9838 9835 9833 9830 9828 9825 9823 9821 9818 9816 9813 9811 9809 9806 9804 9802 9800 9798 9795 9793 9790 9787 9785 9782 9780 9778 9776 9774 9772 9770 9768 9766 9764 9762 9759 9757 9755 9753 9750 9748 9746 9745 9743 9741 9740 9738 9736 9734 9732 9731 9729 9728 9726 9724 9723 9721 9720 9719 9718 9718 9719 9719 9719 9720 9720 9720 9720 9721 9721 9722 9722 9723 9724 9725 9725 9726 9727 9728 9729 9730
9844 9841 9838 9835 9833 9830 9827 9825 9823 9820 9818 9816 9814 9811 9809 9807 9805 9802 9800 9798 9796 9794 9792 9789 9787 9785 9782 9779 9777 9774 9772 9770 9768 9766 9763 9761 9759 9757 9754 9752 9750 9749 9747 9744 9742 9740 9738 9737 9735 9733 9732 9730 9728 9726 9724 9723 9721 9720 9718 9717 9715 9714 9713 9712 9711 9711 9711 9712 9713 9713 9713 9713 9714 9714 9715 9715 9716 9717 9718 9719 9719 9720 9721 9722 9723
9835 9833 9830 9828 9825 9822 9820 9817 9815 9813 9811 9809 9806 9804 9802 9800 9798 9796 9794 9791 9789 9787 9785 9783 9781 9779 9776 9774 9771 9769 9767 9764 9762 9760 9758 9755 9753 9750 9748 9746 9744 9742 9740 9738 9736 9734 9732 9730 9728 9727 9725 9723 9721 9719 9718 9716 9715 9713 9712 9710 9709 9707 9706 9705 9705 9704 9704 9704 9705 9705 9706 9707 9707 9707 9707 9708 9709 9710 9711 9712 9713 9713 9714 9715 9716
9828 9825 9823 9820 9818 9815 9813 9810 9808 9806 9803 9801 9799 9797 9795 9793 9791 9789 9787 9785 9783 9781 9779 9777 9775 9772 9770 9768 9766 9763 9761 9759 9757 9754 9752 9750 9747 9745 9743 9740 9738 9736 9734 9732 9731 9729 9726 9724 9722 9720 9718 9716 9714 9712 9710 9709 9708 9706 9705 9703 9702 9701 9699 9698 9698 9697 9697 9697 9697 9697 9698 9699 9699 9700 9700 9700 9701 9702 9703 9705 9706 9706 9707 9708 9709
9821 9818 9816 9813 9811 9808 9806 9804 9801 9799 9796 9794 9792 9790 9788 9786 9784 9782 9780 9778 9776 9774 9772 9770 9768 9765 9763 9761 9759 9757 9755 9752 9750 9748 9746 9744 9742 9739 9737 9735 9732 9730 9728 9726 9724 9722 9720 9718 9716 9714 9712 9710 9707 9705 9703 9701 9700 9699 9697 9696 9695 9694 9692 9691 9691 9690 9690 9690 9690 9690 9690 9691 9691 9692 9693 9693 9694 9694 9695 9697 9698 9699 9700 9701 9702
9814 9811 9809 9807 9804 9802 9799 9797 9794 9792 9789 9787 9785 9783 9780 9778 9777 9775 9773 9771 9769 9767 9765 9763 9760 9758 9756 9754 9752 9750 9747 9745 9743 9741 9739 9737 9735 9733 9730 9728 9726 9724 9721 9719 9717 9715 9713 9711 9709 9707 9705 9703 9701 9699 9697 9694 9693 9691 9690 9688 9687 9686 9685 9684 9684 9683 9683 9682 9682 9683 9683 9683 9684 9684 9685 9686 9686 9687 9687 9688 9690 9691 9692 9693 9694
9807 9804 9802 9799 9797 9794 9792 9789 9787 9785 9782 9780 9778 9775 9773 9771 9769 9767 9765 9763 9761 9759 9757 9755 9753 9751 9748 9746 9744 9742 9740 9738 9736 9734 9731 9729 9727 9725 9723 9721 9719 9717 9714 9712 9710 9708 9706 9704 9702 9700 9698 9696 9694 9692 9690 9688 9686 9684 9682 9681 9680 9679 9678 9677 9676 9676 9675 9675 9675 9675 9675 9676 9676 9677 9677 9678 9679 9679 9680 9681 9682 9683 9684 9685 9686
9799 9797 9794 9791 9789 9786 9784 9781 9779 9776 9774 9772 9770 9767 9765 9763 9761 9759 9757 9755 9753 9751 9749 9747 9745 9743 9740 9738 9736 9734 9731 9729 9727 9725 9723 9721 9719 9717 9715 9713 9711 9709 9707 9705 9702 9700 9698 9696 9694 9692 9690 9688 9686 9684 9682 9681 9679 9677 9675 9673 9672 9671 9670 9669 9669 9668 9668 9668 9668 9668 9668 9668 9669 9669 9670 9670 9671 9672 9673 9673 9674 9675 9676 9677 9678
9792 9789 9786 9783 9780 9778 9775 9773 9771 9768 9766 9763 9761 9759 9757 9755 9752 9750 9748 9746 9744 9742 9740 9738 9736 9734 9732 9730 9728 9725 9723 9721 9719 9717 9715 9713 9711 9709 9707 9705 9703 9701 9699 9697 9695 9693 9690 9688 9686 9684 9682 9680 9678 9676 9674 9673 9671 9669 9668 9666 9664 9663 9662 9662 9661 9660 9660 9660 9660 9660 9661 9661 9661 9662 9662 9663 9663 9664 9665 9665 9666 9667 9668 9669 9670